Theta_e
343 342 341 334 330 329 328 324 323 322 321 318 317 316 316 316 315 315 315 314 313 313 314 312 311 310 310 310 309 307 307 307 306 305 304 305 305 305 304 305 304 302 302
341 340 338 330 328 327 324 324 323 322 320 319 318 317 316 316 315 315 314 312 312 312 313 312 312 312 311 309 308 307 306 307 306 304 305 305 304 303 304 305 303 302 301
340 337 331 328 327 325 324 324 323 321 320 319 318 317 316 315 314 313 312 312 313 311 311 310 310 311 310 310 308 306 306 306 304 305 304 303 303 302 303 304 303 302 302
336 330 328 327 325 324 325 324 323 321 320 319 318 316 315 314 313 312 313 312 310 311 310 309 309 310 309 309 308 307 306 305 303 303 303 303 302 302 303 303 302 302 301
330 329 328 327 326 324 326 324 322 320 320 319 317 316 315 314 313 312 312 311 311 310 308 306 308 308 308 308 306 307 307 304 303 303 303 302 302 302 302 302 302 301 301
329 328 328 327 326 327 325 323 321 321 320 317 317 316 315 314 315 314 312 311 310 308 307 305 307 307 306 305 303 302 305 303 303 302 303 303 302 302 301 301 300 300 300
328 328 327 328 328 327 325 323 322 319 317 317 317 317 315 313 313 313 312 310 309 308 308 307 307 307 305 304 303 302 302 303 304 303 303 303 302 302 301 300 299 298 298
327 327 329 329 327 326 323 322 318 317 317 317 317 315 314 314 314 314 312 310 308 306 304 303 302 303 302 302 301 301 301 300 301 303 302 302 302 301 300 299 298 298 299
328 329 328 327 326 324 321 319 318 317 316 315 313 314 314 312 313 314 309 306 303 303 302 301 301 301 301 300 299 299 299 298 298 299 300 301 301 300 299 299 298 299 300
329 329 328 324 323 318 317 317 317 316 314 312 313 312 314 312 313 309 303 302 302 300 300 300 300 301 299 298 297 296 297 298 298 297 298 300 299 299 299 299 299 299 300
330 325 323 320 319 316 317 316 315 313 312 312 313 313 307 306 305 303 302 300 299 298 298 299 298 296 295 296 297 297 297 297 297 297 298 298 298 299 299 299 300 300 300
324 320 318 317 316 315 314 313 313 313 314 314 313 307 304 303 301 300 300 298 297 296 296 295 295 295 295 295 296 296 297 297 297 298 298 298 298 298 298 298 299 300 301
321 318 317 316 315 314 313 313 313 314 315 311 308 308 303 301 300 299 299 297 296 295 295 295 295 296 295 294 294 295 296 296 297 298 297 297 298 297 297 297 299 300 301
318 317 316 315 314 312 313 313 313 314 311 307 305 303 301 301 300 298 296 295 295 295 294 295 295 294 294 293 293 294 294 295 296 297 297 297 296 296 297 297 298 300 302
317 316 316 315 315 314 314 314 314 306 305 305 302 301 300 298 297 296 295 294 294 294 294 294 293 293 293 293 292 292 293 293 294 295 296 296 295 295 296 297 298 300 302
316 316 314 309 311 311 310 306 304 304 304 303 301 300 298 297 296 295 294 294 293 293 293 292 292 292 292 292 292 292 292 292 292 293 294 295 294 295 295 298 300 302 303
315 315 311 312 312 308 309 308 302 300 302 302 301 299 297 296 295 294 294 294 293 292 292 292 291 291 291 291 291 291 291 292 291 292 293 293 294 294 296 298 300 302 302
312 309 310 312 308 307 307 309 306 305 302 300 300 299 296 295 295 294 293 293 292 292 291 291 291 291 290 290 290 290 291 291 292 292 292 292 293 295 296 299 300 301 302
310 311 310 308 305 306 308 308 307 305 302 300 298 297 296 295 294 293 293 292 292 292 291 291 291 291 290 290 290 290 291 292 292 293 292 293 294 296 298 300 301 302 303
305 307 307 306 306 307 308 307 305 304 301 300 298 295 294 294 293 293 293 292 292 292 292 292 292 291 291 290 290 291 292 292 292 293 293 295 296 298 299 300 302 303 304
307 306 306 307 307 309 306 304 303 301 300 298 296 295 294 293 293 293 292 293 293 293 293 293 292 291 291 291 291 291 292 292 293 293 295 297 298 299 300 303 304 304 305
310 304 305 307 309 307 305 303 302 300 298 296 295 295 294 293 293 293 293 294 294 294 293 294 292 291 291 291 291 292 292 293 294 296 297 298 299 301 303 304 305 305 305
305 305 307 308 307 304 303 302 301 299 297 296 295 294 293 293 293 293 294 295 295 294 293 294 293 292 291 292 293 293 294 294 295 296 297 299 301 303 303 304 305 305 305
306 307 307 307 306 304 303 301 300 299 296 295 295 294 293 292 292 294 295 296 296 294 293 293 292 292 292 293 294 295 296 296 297 298 300 302 302 303 304 305 305 306 307
307 307 307 306 305 303 302 301 299 298 296 295 295 294 293 292 292 294 296 296 296 296 295 295 295 295 295 296 296 297 297 298 299 301 302 302 303 303 305 305 306 306 305
306 306 307 305 304 303 302 300 299 298 296 295 295 294 292 292 292 294 296 296 296 296 297 296 297 298 298 299 299 300 300 300 301 302 303 302 303 303 304 305 306 306 306
Wind_Speed
17 13 12 10 11 11 10 9 8 7 7 6 8 10 13 14 14 15 16 15 16 20 18 17 17 16 15 15 15 17 15 14 7 22 21 21 22 19 24 18 18 20 22
19 15 15 11 9 8 9 8 7 6 6 7 10 12 13 12 12 13 11 13 17 20 12 9 14 18 16 16 17 16 16 17 14 15 19 17 18 21 20 18 17 17 22
20 18 15 13 12 10 8 8 7 8 7 9 12 11 13 13 13 13 15 16 11 8 12 18 19 18 17 18 18 19 17 16 16 15 17 16 17 20 21 14 16 18 23
21 20 16 14 11 9 8 9 9 8 9 10 11 12 13 13 13 17 17 8 13 14 18 23 19 16 15 18 20 21 20 17 15 15 15 14 15 18 16 17 15 19 22
23 18 16 13 10 9 9 9 8 8 9 11 11 10 13 14 14 10 12 9 11 17 20 21 17 18 17 15 15 20 23 22 16 13 13 12 11 11 13 14 14 17 17
23 19 14 10 10 10 9 9 8 9 10 8 10 14 14 16 14 16 18 18 20 20 16 17 18 17 16 18 21 21 21 19 18 14 13 11 13 11 13 12 13 11 4
21 16 11 11 12 11 10 9 10 8 8 11 13 13 16 18 18 19 18 20 21 18 17 19 21 18 17 19 21 16 12 17 24 21 16 16 15 15 15 14 13 12 14
17 12 12 12 11 12 11 8 6 8 8 10 13 17 20 22 19 18 21 16 13 10 13 19 23 20 26 26 14 13 14 19 19 17 14 19 18 13 14 17 16 17 19
15 11 10 14 10 7 6 5 1 4 10 14 16 20 20 25 26 23 9 7 11 18 24 27 26 25 17 10 15 18 19 20 19 24 21 19 12 10 13 14 14 10 7
13 11 6 8 3 6 5 4 7 10 14 16 20 23 25 15 9 4 7 12 19 25 23 21 19 14 28 27 26 20 19 21 21 18 16 11 10 14 13 12 14 11 7
12 13 11 7 4 3 4 5 8 12 16 20 21 17 9 10 12 7 8 18 18 21 21 19 19 21 23 20 18 18 17 17 18 16 15 15 13 10 9 7 6 12 12
17 15 13 7 5 4 3 6 9 17 19 21 9 10 17 13 14 15 10 20 21 19 18 21 21 19 19 18 16 15 14 14 13 9 10 9 6 7 5 11 6 9 11
15 11 9 6 4 2 5 6 9 18 15 5 8 15 12 11 21 24 26 23 21 18 18 19 16 16 16 16 17 15 13 12 12 8 3 4 2 4 7 8 7 10 8
13 11 8 5 2 4 9 9 13 14 6 12 13 13 13 21 24 25 25 24 22 19 21 18 17 16 15 15 16 14 14 13 11 2 1 2 3 5 6 6 8 11 9
11 8 4 3 10 9 13 13 9 8 8 14 15 15 18 18 18 17 20 22 19 18 16 16 16 15 15 15 16 15 13 12 13 7 4 4 3 4 6 4 8 8 6
9 4 2 7 5 8 6 13 16 13 13 14 15 19 19 15 17 19 20 17 16 15 13 13 13 14 13 13 14 14 12 10 11 8 6 4 4 4 6 7 8 6 6
5 6 4 8 3 7 10 9 19 16 12 10 13 23 27 18 19 20 19 17 17 17 13 14 13 13 14 13 13 12 12 11 9 4 4 4 4 4 4 9 8 6 6
4 1 5 7 6 12 13 17 15 11 8 7 9 25 29 20 21 22 20 19 19 18 16 15 14 15 13 12 11 10 10 9 7 5 4 3 2 2 6 6 5 5 5
2 1 4 13 14 16 15 21 20 18 18 13 15 29 28 23 22 23 22 19 17 17 18 17 17 16 13 12 10 8 8 8 7 7 5 4 3 5 6 4 3 3 6
7 5 6 14 16 14 20 21 20 19 17 17 19 20 23 22 22 22 21 20 19 19 20 20 19 16 14 11 9 8 10 9 8 8 7 5 6 6 6 6 4 9 16
8 10 15 16 15 19 22 22 20 19 17 19 15 17 19 19 19 19 20 21 21 22 22 20 18 14 14 11 10 11 11 10 10 8 7 7 6 6 9 9 14 18 20
6 14 13 12 21 23 22 21 20 19 21 18 14 17 21 20 20 20 21 22 23 22 19 18 16 16 15 14 13 13 12 11 9 9 10 7 7 10 13 15 20 20 20
20 17 15 18 24 23 25 21 20 19 17 13 15 18 19 19 20 19 21 22 23 21 18 18 16 17 15 13 13 13 12 10 8 7 9 10 13 15 16 21 22 22 22
18 18 17 22 22 23 22 19 17 19 14 13 17 19 18 18 18 18 21 21 21 20 18 17 17 16 16 14 12 12 11 10 8 9 11 14 13 16 18 23 24 20 18
20 19 20 22 22 23 20 17 18 17 12 15 19 18 17 16 17 17 21 19 19 17 18 18 17 16 14 14 14 12 11 9 9 10 12 11 13 15 18 18 18 17 20
18 18 20 22 22 20 18 16 16 19 15 17 19 17 16 16 16 15 20 18 16 15 15 16 16 16 16 16 15 12 9 10 11 10 10 11 12 13 14 15 13 13 11
Wind_Direction
176 191 185 162 162 164 175 173 183 203 234 233 242 249 255 261 269 268 269 271 281 292 293 289 289 295 280 275 278 297 298 290 279 300 300 301 305 304 316 312 310 315 318
172 179 182 163 172 198 192 194 213 233 248 252 261 265 273 286 294 292 283 290 288 290 308 301 310 294 280 277 286 289 282 282 284 291 299 303 302 317 314 313 313 315 329
166 171 165 174 188 195 193 204 222 234 248 257 270 285 296 301 304 303 299 296 305 330 331 323 321 309 295 289 280 276 273 276 287 282 289 299 306 323 323 324 321 315 333
164 159 167 175 191 206 204 216 229 245 258 269 282 297 304 303 304 303 297 304 314 319 322 321 314 313 316 308 293 278 278 267 275 281 279 294 306 319 322 325 323 323 328
153 158 173 190 206 214 215 226 237 258 259 281 292 304 312 308 309 289 310 301 305 317 317 316 304 310 310 307 314 303 283 263 269 265 271 286 293 309 311 308 309 321 316
155 161 174 197 209 216 221 233 251 258 273 281 300 308 305 301 299 296 301 305 307 316 301 304 299 296 288 299 312 310 285 268 266 257 264 267 273 290 309 312 308 318 319
152 163 186 198 203 218 230 247 251 256 283 297 302 299 297 293 289 289 295 308 304 303 311 300 294 303 305 305 302 298 305 299 279 265 258 267 265 289 313 308 304 303 292
155 173 193 197 209 229 225 231 245 288 299 305 305 297 293 290 292 292 297 291 321 351 9 347 333 326 314 300 290 299 313 318 306 298 283 291 280 284 308 306 302 301 303
159 183 205 202 208 231 211 255 49 341 316 307 299 295 295 307 310 298 304 354 347 339 336 329 328 312 314 311 325 322 315 305 300 298 288 286 258 292 307 302 292 294 303
164 188 200 155 158 127 94 24 338 322 303 299 297 308 324 349 10 96 52 356 342 338 331 318 314 308 321 315 316 309 298 297 295 294 280 277 291 302 304 298 285 263 285
159 137 126 124 75 16 352 329 317 304 300 299 310 341 61 68 75 28 347 354 344 331 324 325 327 327 328 333 330 323 311 313 316 288 275 280 288 282 296 304 336 270 267
133 127 121 117 121 124 223 298 317 301 293 302 321 95 110 78 40 23 334 348 347 347 337 335 334 335 339 340 342 338 327 318 312 295 271 275 274 286 294 315 294 320 292
132 135 136 146 162 277 282 278 289 297 281 333 46 71 115 18 7 2 353 353 351 345 340 334 341 344 349 353 350 346 347 347 347 288 279 294 339 3 327 318 260 320 323
141 135 148 164 198 263 275 296 296 310 14 77 72 59 25 8 359 355 352 349 347 351 346 352 356 356 355 354 360 1 360 358 346 24 31 52 346 338 347 331 326 349 325
145 161 178 221 253 289 299 330 330 62 70 91 78 53 25 10 6 354 351 351 355 355 353 359 351 351 354 356 360 2 4 15 26 25 32 24 12 357 342 327 343 340 321
145 149 222 270 308 340 28 70 80 75 78 89 77 47 29 16 2 1 359 5 7 6 3 355 347 349 350 349 358 354 2 7 6 22 25 55 34 359 338 354 9 349 82
159 172 266 307 353 24 13 91 111 101 91 81 48 26 17 17 4 8 11 9 12 10 358 349 343 345 345 350 355 355 357 1 9 21 18 32 35 350 349 358 9 57 49
152 165 320 355 35 53 55 77 119 116 127 112 25 8 12 19 13 16 12 10 0 359 353 346 343 345 348 354 360 359 357 9 28 35 48 80 62 31 2 13 32 37 32
117 273 341 40 68 57 61 87 82 80 74 70 26 10 6 17 17 14 11 5 349 344 349 348 350 352 357 5 9 20 25 28 37 56 68 90 94 9 15 44 29 8 94
126 109 46 84 64 45 88 83 72 73 64 52 32 14 7 10 8 358 359 1 356 354 357 352 352 359 9 16 30 52 46 56 54 68 79 80 24 26 34 31 83 113 109
113 74 95 78 64 74 83 76 71 66 55 40 19 10 20 11 3 356 358 2 1 6 11 9 12 30 39 47 62 58 66 64 64 79 69 29 40 29 15 92 112 114 114
177 105 81 75 86 86 82 74 68 59 44 25 10 12 21 14 9 5 9 10 19 26 27 27 34 45 54 67 63 65 67 72 68 61 45 55 30 42 102 108 110 109 108
107 96 84 84 91 86 76 68 61 52 34 23 16 14 10 8 8 14 19 24 28 35 39 44 51 51 63 66 66 67 60 60 66 56 47 39 46 92 111 108 110 110 109
93 89 90 98 92 82 79 70 60 39 30 22 22 15 7 7 11 24 33 32 40 46 48 49 56 59 69 66 59 55 65 78 68 60 50 54 76 93 113 117 116 109 109
94 85 87 100 99 84 82 68 60 36 24 24 22 14 8 16 26 31 42 45 50 52 50 49 56 58 54 54 58 61 65 68 71 74 71 80 91 101 115 115 111 107 115
96 85 78 100 93 84 85 75 59 42 29 26 21 16 11 23 30 37 44 49 50 52 53 44 44 48 48 48 48 49 59 82 86 78 82 94 105 111 124 126 117 112 106